This is the latest recevied weather packets stored in our database for station/object KU9TRY. If no packets are shown the sender has not sent any weather packets the latest 10 day(s).
| Time | Temp. | Humidity | Pressure | Rain* | Wind** | Luminosity | Snow |
|---|---|---|---|---|---|---|---|
| 1778335153 | 17.78° C | 73% | 1011.2 hPa | 0 mm | - | 296 W/m² | - |
| 1778334850 | 17.78° C | 76% | 1011.2 hPa | 0 mm | - | 261 W/m² | - |
| 1778334547 | 16.67° C | 76% | 1011.4 hPa | 0 mm | - | 299 W/m² | - |
| 1778334244 | 16.67° C | 78% | 1011.2 hPa | 0 mm | - | 210 W/m² | - |
| 1778333941 | 16.67° C | 79% | 1011.1 hPa | 0 mm | - | 187 W/m² | - |
| 1778333638 | 16.11° C | 82% | 1011.4 hPa | 0 mm | - | 136 W/m² | - |
| 1778333337 | 16.11° C | 83% | 1011.1 hPa | 0 mm | - | 150 W/m² | - |
| 1778333034 | 15.56° C | 84% | 1011.1 hPa | 0 mm | - | 142 W/m² | - |
| 1778332731 | 15.56° C | 83% | 1011.5 hPa | 0 mm | - | 112 W/m² | - |
| 1778332428 | 15.56° C | 83% | 1011.5 hPa | 0 mm | - | 97 W/m² | - |
| 1778332125 | 15° C | 83% | 1011.5 hPa | 0 mm | - | 87 W/m² | - |
| 1778331820 | 15° C | 86% | 1011.5 hPa | 0 mm | - | 94 W/m² | - |
| 1778331517 | 15° C | 86% | 1011.6 hPa | 0 mm | - | 90 W/m² | - |
| 1778331213 | 14.44° C | 87% | 1011.6 hPa | 0 mm | - | 88 W/m² | - |
| 1778330910 | 14.44° C | 85% | 1011.5 hPa | 0 mm | - | 101 W/m² | - |
| 1778330607 | 13.89° C | 86% | 1011.7 hPa | 0 mm | - | 87 W/m² | - |
| 1778330305 | 13.89° C | 85% | 1011.4 hPa | 0 mm | - | 150 W/m² | - |
| 1778330001 | 13.33° C | 88% | 1011.4 hPa | 0 mm | - | 142 W/m² | - |
| 1778329697 | 13.33° C | 89% | 1011.4 hPa | 0 mm | - | 125 W/m² | - |
| 1778329394 | 12.78° C | 89% | 1011.2 hPa | 0 mm | - | 113 W/m² | - |
| 1778329091 | 12.22° C | 89% | 1011.2 hPa | 0 mm | - | 84 W/m² | - |
| 1778328788 | 12.22° C | 89% | 1011 hPa | 0 mm | - | 73 W/m² | - |
| 1778328487 | 12.22° C | 91% | 1011.2 hPa | 0 mm | - | 90 W/m² | - |
| 1778328184 | 11.11° C | 93% | 1010.9 hPa | 0 mm | - | 55 W/m² | - |
| 1778327882 | 10.56° C | 94% | 1010.8 hPa | 0 mm | - | 48 W/m² | - |
* Rain latest hour (hover to see other rain measurements)
** Current wind speed in m/s (hover to see current wind gust speed)